GW0367 Weather Reports


time (UTC)temp
C
wind
direction
speed
KPH
gust
KPH
rain 1hr
cm
rain 24hr
cm
rain mn
cm
humidity
%
barometer
mb
20260506025517 16 360 8.0 17.7 0.00 0.36 0.03 54 1013.0
20260506025022 16 180 4.8 17.7 0.00 0.36 0.03 53 1012.8
20260506024539 16 113 11.3 20.9 0.00 0.36 0.03 52 1012.7
20260506024017 16 360 11.3 20.9 0.00 0.36 0.03 52 1012.7
20260506023519 16 127 12.9 20.9 0.00 0.36 0.03 51 1012.5
20260506023033 17 221 9.7 14.5 0.00 0.36 0.03 50 1012.5
20260506022517 17 199 8.0 12.9 0.00 0.36 0.03 48 1012.3
20260506022017 18 228 3.2 9.7 0.00 0.36 0.03 45 1012.3
20260506021536 19 241 3.2 8.0 0.00 0.36 0.03 43 1012.3
20260506021018 20 253 3.2 6.4 0.00 0.36 0.03 40 1012.3
20260506020522 20 269 1.6 6.4 0.00 0.36 0.03 39 1012.2
20260506020035 20 277 1.6 8.0 0.00 0.36 0.03 38 1012.2
20260506015518 20 292 3.2 11.3 0.00 0.76 0.03 38 1012.2
20260506015018 20 277 3.2 14.5 0.00 0.76 0.03 38 1012.1
20260506014543 20 243 4.8 14.5 0.00 0.76 0.03 37 1012.1
20260506014017 20 319 6.4 12.9 0.00 0.76 0.03 37 1012.1
20260506013518 20 13 1.6 11.3 0.00 0.76 0.03 39 1012.0
20260506013035 20 64 3.2 14.5 0.00 0.76 0.03 37 1012.1
20260506012517 20 288 6.4 14.5 0.00 0.76 0.03 37 1012.1
20260506012018 20 315 4.8 12.9 0.00 0.76 0.03 38 1012.1
20260506011538 20 308 6.4 12.9 0.00 0.76 0.03 35 1012.1
20260506011022 20 327 4.8 14.5 0.00 0.76 0.03 37 1012.0
20260506010518 21 313 6.4 14.5 0.00 0.76 0.03 36 1012.0
20260506010041 21 15 3.2 12.9 0.00 0.76 0.03 38 1012.0
20260506005519 21 327 4.8 14.5 0.00 1.14 0.03 37 1012.0
20260506005017 21 19 4.8 14.5 0.00 1.14 0.03 36 1012.0
20260506004546 21 28 4.8 12.9 0.00 1.14 0.03 38 1012.2
20260506004017 20 328 3.2 14.5 0.00 1.14 0.03 38 1012.2
20260506003519 20 59 4.8 14.5 0.00 1.14 0.03 38 1012.2
20260506003039 20 290 1.6 14.5 0.00 1.14 0.03 39 1012.4
20260506002517 19 271 3.2 16.1 0.00 1.14 0.03 40 1012.3
20260506002019 19 294 8.0 16.1 0.00 1.14 0.03 38 1012.3
20260506001535 20 271 3.2 12.9 0.00 1.14 0.03 38 1012.3
20260506001017 20 360 1.6 8.0 0.00 1.14 0.03 37 1012.3
20260506000518 20 282 3.2 12.9 0.00 1.14 0.03 40 1012.4
20260506000033 20 83 3.2 12.9 0.00 1.14 0.03 39 1012.4
20260505235518 20 82 6.4 14.5 0.00 1.14 0.03 38 1012.3
20260505235018 19 88 6.4 14.5 0.00 1.14 0.03 40 1012.3
20260505234536 20 126 4.8 12.9 0.00 1.14 0.03 37 1012.3
20260505234018 20 80 3.2 11.3 0.00 1.14 0.03 37 1012.3
20260505233520 20 171 4.8 12.9 0.00 1.14 0.03 43 1012.3
20260505233032 18 259 4.8 12.9 0.00 1.14 0.03 42 1012.4
20260505232517 19 242 4.8 12.9 0.00 1.14 0.03 40 1012.4
20260505232015 19 226 4.8 17.7 0.00 1.14 0.03 40 1012.5
20260505231534 19 36 4.8 17.7 0.00 1.14 0.03 42 1012.5
20260505231017 20 227 3.2 12.9 0.00 1.14 0.03 38 1012.6
20260505230519 19 111 4.8 12.9 0.00 1.14 0.03 39 1012.5
20260505230045 19 25 3.2 12.9 0.00 1.14 0.03 42 1012.7
20260505225517 19 349 3.2 14.5 0.00 1.14 0.03 44 1012.8
20260505225022 18 11 1.6 14.5 0.00 1.14 0.03 46 1012.8
20260505224538 18 22 6.4 14.5 0.00 1.14 0.03 42 1012.8
20260505224018 19 0 0.0 9.7 0.00 1.14 0.03 43 1012.8
20260505223518 18 39 3.2 11.3 0.00 1.14 0.03 45 1012.8
20260505223035 18 166 0.0 11.3 0.00 1.14 0.03 45 1013.0
20260505222519 18 244 4.8 11.3 0.00 1.14 0.03 44 1013.0
20260505222017 18 321 3.2 6.4 0.00 1.14 0.03 49 1013.0
20260505221535 18 191 1.6 8.0 0.00 1.14 0.03 48 1013.1
20260505221017 18 155 3.2 8.0 0.00 1.14 0.03 44 1013.2
20260505220517 18 185 0.0 12.9 0.00 1.14 0.03 47 1013.2
20260505220041 17 0 3.2 12.9 0.00 1.14 0.03 48 1013.3
20260505215517 18 330 1.6 12.9 0.00 1.14 0.03 50 1013.4
20260505215022 18 225 4.8 12.9 0.00 1.14 0.03 48 1013.4
20260505214537 18 74 3.2 11.3 0.00 1.14 0.03 46 1013.5
20260505214018 17 267 3.2 12.9 0.00 1.14 0.03 50 1013.5
20260505213520 17 0 3.2 12.9 0.00 1.14 0.03 50 1013.5
20260505213043 17 350 6.4 12.9 0.00 1.14 0.03 51 1013.6
20260505212517 17 71 3.2 11.3 0.00 1.14 0.03 49 1013.7
20260505212020 17 323 1.6 8.0 0.00 1.14 0.03 50 1013.7
20260505211534 17 195 1.6 14.5 0.00 1.14 0.03 51 1013.8
20260505211019 16 227 3.2 16.1 0.00 1.14 0.03 50 1014.0
20260505210520 17 350 4.8 16.1 0.00 1.14 0.03 53 1014.0
20260505210033 16 0 4.8 12.9 0.00 1.14 0.03 54 1014.0
20260505205520 17 325 4.8 12.9 0.00 1.17 0.03 54 1014.0
20260505205017 16 0 3.2 9.7 0.00 1.17 0.03 51 1014.0
20260505204534 16 104 3.2 9.7 0.00 1.17 0.03 52 1014.0
20260505204020 16 350 3.2 9.7 0.00 1.17 0.03 59 1014.1
20260505203517 17 12 1.6 12.9 0.00 1.17 0.03 59 1014.0
20260505203037 16 225 6.4 12.9 0.00 1.17 0.03 57 1014.0
20260505202516 16 156 3.2 9.7 0.00 1.17 0.03 59 1014.0
20260505202017 16 90 1.6 6.4 0.00 1.17 0.03 62 1014.0
20260505201536 15 116 1.6 14.5 0.00 1.17 0.03 63 1014.1
20260505201019 15 347 4.8 14.5 0.00 1.17 0.03 60 1014.1
20260505200518 15 65 1.6 6.4 0.00 1.17 0.03 61 1014.1
20260505200036 15 17 1.6 6.4 0.00 1.17 0.03 66 1014.2
20260505195521 15 0 3.2 8.0 0.00 1.17 0.03 59 1014.2
20260505195017 15 0 1.6 11.3 0.00 1.17 0.03 60 1014.3
20260505194536 16 59 3.2 14.5 0.00 1.17 0.03 59 1014.3
20260505194018 15 0 3.2 14.5 0.00 1.17 0.03 67 1014.3
20260505193520 15 101 1.6 9.7 0.00 1.17 0.03 66 1014.3
20260505193052 14 55 1.6 6.4 0.00 1.17 0.03 67 1014.3
20260505192518 14 28 1.6 8.0 0.00 1.17 0.03 66 1014.3
20260505192018 15 71 1.6 9.7 0.00 1.17 0.03 66 1014.3
20260505191536 15 62 3.2 9.7 0.00 1.17 0.03 67 1014.3
20260505191017 15 66 3.2 9.7 0.00 1.17 0.03 66 1014.2
20260505190517 15 350 3.2 14.5 0.00 1.17 0.03 71 1014.2
20260505190041 14 0 1.6 14.5 0.00 1.17 0.03 72 1014.1
20260505185519 14 75 3.2 9.7 0.00 1.17 0.03 69 1014.1
20260505185018 13 82 1.6 9.7 0.00 1.17 0.03 70 1014.2
20260505184535 13 0 1.6 9.7 0.00 1.17 0.03 67 1014.2
20260505184018 13 0 3.2 8.0 0.00 1.17 0.03 69 1014.2
20260505183519 13 0 1.6 8.0 0.00 1.17 0.03 68 1014.3
20260505183035 13 0 0.0 11.3 0.00 1.17 0.03 77 1014.2
20260505182518 13 79 1.6 11.3 0.00 1.17 0.03 71 1014.3
20260505182018 12 86 1.6 9.7 0.00 1.17 0.03 73 1014.3
20260505181540 12 93 1.6 11.3 0.00 1.17 0.03 78 1014.3
20260505181019 11 110 3.2 11.3 0.00 1.17 0.03 77 1014.3
20260505180519 11 157 3.2 11.3 0.00 1.17 0.03 77 1014.2
20260505180044 11 213 4.8 8.0 0.00 1.17 0.03 75 1014.2
20260505175521 12 169 1.6 8.0 0.00 1.17 0.03 80 1014.2
20260505175019 11 66 0.0 6.4 0.00 1.17 0.03 79 1014.2
20260505174535 11 40 1.6 6.4 0.00 1.17 0.03 79 1014.2
20260505174019 11 0 0.0 3.2 0.00 1.17 0.03 82 1014.1
20260505173522 10 0 0.0 4.8 0.00 1.17 0.03 82 1014.0
20260505173035 10 101 0.0 4.8 0.00 1.17 0.03 80 1014.0
20260505172518 10 101 0.0 3.2 0.00 1.17 0.03 82 1013.9
20260505172018 10 100 0.0 4.8 0.00 1.17 0.03 81 1013.9
20260505171547 10 98 0.0 4.8 0.00 1.17 0.03 82 1013.8
20260505171019 10 99 0.0 4.8 0.00 1.17 0.03 83 1013.9
20260505170520 10 0 0.0 4.8 0.00 1.17 0.03 85 1013.8
20260505170041 9 0 0.0 4.8 0.00 1.17 0.03 86 1013.8
20260505165519 9 100 1.6 4.8 0.00 1.17 0.03 85 1013.8
20260505165019 9 94 0.0 6.4 0.00 1.17 0.03 85 1013.8
20260505164540 8 95 1.6 6.4 0.00 1.17 0.03 85 1013.8
20260505164019 8 92 3.2 6.4 0.00 1.17 0.03 85 1013.7
20260505163519 8 0 1.6 6.4 0.00 1.17 0.03 85 1013.7
20260505163041 8 108 1.6 6.4 0.00 1.17 0.03 85 1013.7
20260505162518 8 116 1.6 4.8 0.00 1.17 0.03 85 1013.6
20260505162019 8 0 0.0 4.8 0.00 1.17 0.03 87 1013.6
20260505161532 8 0 1.6 4.8 0.00 1.17 0.03 87 1013.5
20260505161020 8 166 0.0 6.4 0.00 1.17 0.03 88 1013.5
20260505160519 8 0 1.6 6.4 0.00 1.17 0.03 88 1013.4
20260505153046 7 0 0.0 3.2 0.00 1.17 0.03 89 1013.2
20260505152518 7 0 0.0 3.2 0.00 1.17 0.03 89 1013.2
20260505152024 7 215 0.0 1.6 0.00 1.17 0.03 90 1013.1
20260505151538 7 0 0.0 1.6 0.00 1.17 0.03 90 1013.0
20260505151018 7 0 0.0 1.6 0.00 1.17 0.03 90 1012.9
20260505150518 7 0 0.0 0.0 0.00 1.17 0.03 91 1012.8
20260505140519 6 0 0.0 0.0 0.00 1.17 0.03 94 1012.3
20260505125020 6 0 0.0 0.0 0.00 1.17 0.03 94 1011.5
20260505124544 6 0 0.0 0.0 0.00 1.17 0.03 94 1011.5
20260505124020 6 0 0.0 0.0 0.00 1.17 0.03 94 1011.5
20260505123518 6 0 0.0 0.0 0.00 1.17 0.03 94 1011.4
20260505123052 6 0 0.0 0.0 0.00 1.17 0.03 94 1011.4
20260505122518 6 0 0.0 0.0 0.00 1.17 0.03 94 1011.5
20260505122022 6 0 0.0 0.0 0.00 1.17 0.03 94 1011.4
20260505121535 6 0 0.0 0.0 0.00 1.17 0.03 94 1011.5
20260505121019 6 0 0.0 0.0 0.00 1.17 0.03 94 1011.4
20260505120518 6 0 0.0 0.0 0.00 1.17 0.03 94 1011.4
20260505120052 6 0 0.0 0.0 0.00 1.17 0.03 94 1011.3
20260505115518 6 0 0.0 0.0 0.00 1.17 0.03 94 1011.3
20260505115018 6 0 0.0 0.0 0.00 1.17 0.03 94 1011.3
20260505114541 6 0 0.0 0.0 0.00 1.17 0.03 94 1011.4
20260505114017 6 0 0.0 0.0 0.00 1.17 0.03 94 1011.5
20260505113519 6 0 0.0 0.0 0.00 1.17 0.03 94 1011.4
20260505113035 6 0 0.0 0.0 0.00 1.17 0.03 94 1011.3
20260505112522 6 0 0.0 0.0 0.00 1.17 0.03 94 1011.3
20260505112019 6 0 0.0 0.0 0.00 1.17 0.03 94 1011.3
20260505111536 6 0 0.0 0.0 0.00 1.17 0.03 94 1011.3
20260505111022 6 0 0.0 0.0 0.00 1.17 0.03 94 1011.3
20260505110522 6 0 0.0 0.0 0.00 1.17 0.03 94 1011.3
20260505102019 6 0 0.0 0.0 0.00 1.17 0.03 93 1011.5
20260505101536 6 0 0.0 0.0 0.00 1.17 0.03 93 1011.6
20260505101019 6 0 0.0 0.0 0.00 1.17 0.03 93 1011.5
20260505100519 6 0 0.0 0.0 0.00 1.17 0.03 93 1011.6
20260505100038 6 0 0.0 0.0 0.00 1.17 0.03 93 1011.7
20260505095518 6 0 0.0 0.0 0.00 1.17 0.03 93 1011.7
20260505095018 6 0 0.0 0.0 0.00 1.17 0.03 93 1011.7
20260505094534 6 0 0.0 0.0 0.00 1.17 0.03 93 1011.7
20260505094018 6 0 0.0 0.0 0.03 1.17 0.03 93 1011.8
20260505093518 6 0 0.0 0.0 0.03 1.17 0.03 93 1011.8
20260505093034 6 0 0.0 0.0 0.03 1.17 0.03 93 1011.8
20260505092519 6 0 0.0 0.0 0.03 1.17 0.03 92 1011.8
20260505092019 6 0 0.0 0.0 0.03 1.17 0.03 93 1011.9
20260505091538 6 0 0.0 0.0 0.03 1.17 0.03 92 1012.0
20260505091019 6 0 0.0 0.0 0.03 1.17 0.03 92 1011.9
20260505090518 6 0 0.0 0.0 0.03 1.17 0.03 92 1011.7
20260505090039 6 0 0.0 0.0 0.03 1.17 0.03 92 1011.8
20260505085518 6 0 0.0 0.0 0.03 1.17 0.03 93 1012.0
20260505085019 6 0 0.0 0.0 0.03 1.17 0.03 92 1012.1
20260505084554 6 0 0.0 0.0 0.03 1.17 0.03 92 1012.1
20260505084018 6 0 0.0 0.0 0.00 1.14 0.00 92 1012.2
20260505083522 6 0 0.0 0.0 0.00 1.14 0.00 92 1012.2
20260505083129 6 0 0.0 0.0 0.00 1.14 0.00 92 1012.3
20260505082518 6 0 0.0 0.0 0.00 1.14 0.00 92 1011.9
20260505082018 6 0 0.0 0.0 0.00 1.14 0.00 92 1012.2
20260505081551 6 0 0.0 0.0 0.00 1.14 0.00 92 1012.3
20260505081018 6 0 0.0 0.0 0.00 1.14 0.00 92 1012.2
20260505080517 6 0 0.0 0.0 0.00 1.14 0.00 92 1012.2
20260505080044 6 0 0.0 1.6 0.00 1.14 0.00 92 1012.2
20260505075523 6 0 0.0 4.8 0.00 1.14 0.00 92 1012.0
20260505075017 6 0 0.0 6.4 0.03 1.14 0.00 92 1012.0
20260505074533 6 231 1.6 6.4 0.03 1.14 0.00 92 1011.9
20260505074014 6 274 3.2 6.4 0.05 1.14 0.00 92 1012.1
20260505073514 6 0 0.0 0.0 0.05 1.14 0.00 92 1012.3
20260505073048 6 0 0.0 0.0 0.05 1.14 0.00 92 1012.5
20260505072518 6 0 0.0 0.0 0.05 1.14 0.00 92 1012.7
20260505072017 6 0 0.0 0.0 0.05 1.14 0.00 92 1012.8
20260505071545 6 0 0.0 1.6 0.05 1.14 0.00 92 1012.7
20260505071015 6 0 0.0 1.6 0.05 1.14 0.00 92 1012.6
20260505070520 6 0 0.0 1.6 0.05 1.14 0.00 92 1012.5
20260505070041 6 0 0.0 4.8 0.05 1.14 0.00 92 1012.3
20260505065523 6 0 0.0 4.8 0.05 1.14 1.14 91 1012.2
20260505065017 6 0 1.6 4.8 0.03 1.12 1.12 91 1011.9
20260505064536 6 0 0.0 4.8 0.03 1.12 1.12 91 1012.0
20260505064014 6 219 3.2 6.4 0.00 1.09 1.09 92 1011.7
20260505063517 6 196 1.6 6.4 0.03 1.09 1.09 91 1011.9
20260505063038 6 200 0.0 6.4 0.03 1.09 1.09 92 1011.7
20260505062517 6 0 0.0 4.8 0.03 1.09 1.09 91 1011.8
20260505062018 6 0 0.0 6.4 0.03 1.09 1.09 91 1011.8
20260505061533 6 0 1.6 6.4 0.05 1.09 1.09 91 1011.8
20260505061014 6 150 3.2 8.0 0.05 1.09 1.09 91 1011.7
20260505060518 6 130 1.6 9.7 0.05 1.09 1.09 91 1011.6
20260505060051 6 136 3.2 9.7 0.05 1.09 1.09 91 1011.6
20260505055517 6 142 3.2 8.0 0.05 1.09 1.09 91 1011.7
20260505055019 6 171 1.6 6.4 0.05 1.09 1.09 92 1011.7
20260505054536 6 204 1.6 6.4 0.05 1.09 1.09 92 1011.8
20260505054020 6 170 1.6 8.0 0.05 1.09 1.09 92 1012.0
20260505053518 6 171 3.2 8.0 0.03 1.07 1.07 92 1012.0
20260505053037 6 198 4.8 8.0 0.03 1.07 1.07 92 1011.8
20260505052517 6 223 3.2 6.4 0.03 1.07 1.07 92 1012.1
20260505052017 6 0 0.0 3.2 0.03 1.07 1.07 92 1012.2
20260505051532 6 0 0.0 3.2 0.00 1.04 1.04 92 1012.2
20260505051015 6 0 0.0 3.2 0.00 1.04 1.04 92 1012.1
20260505050518 6 0 0.0 3.2 0.00 1.04 1.04 92 1012.1
20260505041548 6 331 0.0 17.7 0.08 1.04 1.04 91 1011.9
20260505041014 6 335 6.4 17.7 0.13 1.04 1.04 90 1012.0
20260505040521 6 323 9.7 17.7 0.20 1.04 1.04 90 1011.9
20260505040036 6 317 4.8 11.3 0.23 1.04 1.04 89 1011.8
20260505035522 6 0 3.2 11.3 0.23 1.04 1.04 89 1011.3
20260505035018 7 107 3.2 9.7 0.23 1.04 1.04 89 1011.4
20260505034532 7 80 0.0 16.1 0.23 1.04 1.04 90 1011.3
20260505034017 7 142 4.8 24.1 0.23 1.04 1.04 90 1011.2
20260505033522 7 186 8.0 24.1 0.23 1.04 1.04 91 1010.8
20260505033033 6 201 11.3 20.9 0.20 1.02 1.02 90 1010.5
20260505032516 6 205 4.8 11.3 0.20 1.02 1.02 89 1011.3
20260505032016 7 146 3.2 11.3 0.15 0.97 0.97 88 1011.8
20260505031535 7 108 3.2 8.0 0.13 0.94 0.94 88 1011.9
20260505031018 7 242 3.2 6.4 0.08 0.89 0.89 87 1011.7
20260505030518 7 0 0.0 6.4 0.03 0.84 0.84 86 1012.0
20260505030044 7 0 0.0 6.4 0.00 0.81 0.81 87 1011.8